Time,TemperatureF,DewpointF,PressureIn,WindDirection,WindDirectionDegrees,WindSpeedMPH,WindSpeedGustMPH,Humidity,HourlyPrecipIn,Conditions,Clouds,dailyrainin,SolarRadiationWatts/m^2,SoftwareType,DateUTC
2013-03-12 00:03:00,31.4,26.2,23.64,NW,313,4.0,6.0,81,0.00,,,0.20,285,Wunderground v.1.15,2013-03-12 05:03:00,
2013-03-12 00:09:00,30.8,25.4,30.12,NW,307,4.0,4.0,80,0.00,,,0.00,285,Wunderground v.1.15,2013-03-12 05:09:00,
2013-03-12 00:15:00,29.6,24.5,30.12,NW,307,3.0,4.0,81,0.00,,,0.00,271,Wunderground v.1.15,2013-03-12 05:15:00,
2013-03-12 00:23:00,28.3,23.2,30.12,NW,307,3.0,3.0,81,0.00,,,0.00,257,Wunderground v.1.15,2013-03-12 05:23:00,
2013-03-12 00:29:00,27.2,22.7,30.12,NW,307,3.0,3.0,83,0.00,,,0.00,248,Wunderground v.1.15,2013-03-12 05:29:00,
2013-03-12 00:35:00,26.9,23.0,30.15,WNW,300,3.0,3.0,85,0.00,,,0.00,244,Wunderground v.1.15,2013-03-12 05:35:00,
2013-03-12 00:43:00,26.3,22.4,30.15,WNW,301,2.0,3.0,85,0.00,,,0.00,241,Wunderground v.1.15,2013-03-12 05:43:00,
2013-03-12 00:49:00,25.8,23.8,30.15,WNW,300,1.0,2.0,92,0.00,,,0.00,236,Wunderground v.1.15,2013-03-12 05:49:00,
2013-03-12 00:55:00,25.6,22.3,30.15,WNW,300,2.0,2.0,87,0.00,,,0.00,232,Wunderground v.1.15,2013-03-12 05:55:00,
2013-03-12 01:03:00,25.8,22.7,30.15,WNW,301,1.0,7.0,88,0.00,,,0.00,234,Wunderground v.1.15,2013-03-12 06:03:00,
2013-03-12 01:09:00,26.0,22.9,30.15,WNW,301,1.0,2.0,88,0.00,,,0.00,237,Wunderground v.1.15,2013-03-12 06:09:00,
2013-03-12 01:15:00,25.8,22.5,30.16,WNW,301,2.0,3.0,87,0.00,,,0.00,237,Wunderground v.1.15,2013-03-12 06:15:00,
2013-03-12 01:23:00,25.8,22.2,30.16,WNW,295,3.0,4.0,86,0.00,,,0.00,237,Wunderground v.1.15,2013-03-12 06:23:00,
2013-03-12 01:29:00,26.0,22.4,30.16,WNW,294,3.0,4.0,86,0.00,,,0.00,237,Wunderground v.1.15,2013-03-12 06:29:00,
2013-03-12 01:35:00,26.1,22.5,30.16,WNW,294,4.0,4.0,86,0.00,,,0.00,241,Wunderground v.1.15,2013-03-12 06:35:00,
2013-03-12 01:41:00,26.1,22.5,30.16,WNW,294,3.0,3.0,86,0.00,,,0.00,237,Wunderground v.1.15,2013-03-12 06:41:00,
2013-03-12 01:47:00,26.0,22.7,30.17,WNW,294,3.0,3.0,87,0.00,,,0.00,241,Wunderground v.1.15,2013-03-12 06:47:00,
2013-03-12 01:53:00,26.0,22.4,30.17,WNW,294,2.0,3.0,86,0.00,,,0.00,239,Wunderground v.1.15,2013-03-12 06:53:00,
2013-03-12 01:59:00,25.8,22.5,30.17,WNW,294,2.0,3.0,87,0.00,,,0.00,236,Wunderground v.1.15,2013-03-12 06:59:00,
2013-03-12 02:06:00,25.6,22.3,30.17,WNW,294,3.0,5.0,87,0.00,,,0.00,236,Wunderground v.1.15,2013-03-12 07:06:00,
2013-03-12 02:11:00,25.0,21.4,30.18,WNW,294,1.0,2.0,86,0.00,,,0.00,230,Wunderground v.1.15,2013-03-12 07:11:00,
2013-03-12 02:18:00,23.3,19.5,30.19,WNW,291,2.0,4.0,85,0.00,,,0.00,216,Wunderground v.1.15,2013-03-12 07:18:00,
2013-03-12 02:23:00,22.4,19.1,30.18,WNW,291,3.0,3.0,87,0.00,,,0.00,214,Wunderground v.1.15,2013-03-12 07:23:00,
2013-03-12 02:29:00,22.5,19.7,30.18,WNW,291,1.0,1.0,89,0.00,,,0.00,211,Wunderground v.1.15,2013-03-12 07:29:00,
2013-03-12 02:37:00,23.1,20.3,30.18,WNW,291,0.0,1.0,89,0.00,,,0.00,213,Wunderground v.1.15,2013-03-12 07:37:00,
2013-03-12 02:43:00,22.9,20.1,30.18,WNW,291,0.0,1.0,89,0.00,,,0.00,211,Wunderground v.1.15,2013-03-12 07:43:00,
2013-03-12 02:49:00,22.5,19.5,30.18,WNW,291,2.0,4.0,88,0.00,,,0.00,211,Wunderground v.1.15,2013-03-12 07:49:00,
2013-03-12 02:56:00,21.2,17.7,30.18,WNW,291,3.0,4.0,86,0.00,,,0.00,204,Wunderground v.1.15,2013-03-12 07:56:00,
2013-03-12 03:01:00,20.1,16.9,30.19,WNW,291,2.0,5.0,87,0.00,,,0.00,197,Wunderground v.1.15,2013-03-12 08:01:00,
2013-03-12 03:07:00,20.1,17.4,30.19,WNW,291,2.0,5.0,89,0.00,,,0.00,197,Wunderground v.1.15,2013-03-12 08:07:00,
2013-03-12 03:13:00,21.5,19.5,30.19,WNW,291,2.0,3.0,92,0.00,,,0.00,202,Wunderground v.1.15,2013-03-12 08:13:00,
2013-03-12 03:19:00,22.9,20.9,30.19,WNW,291,2.0,2.0,92,0.00,,,0.00,213,Wunderground v.1.15,2013-03-12 08:19:00,
2013-03-12 03:26:00,24.3,22.3,30.19,WNW,290,3.0,4.0,92,0.00,,,0.00,225,Wunderground v.1.15,2013-03-12 08:26:00,
2013-03-12 03:31:00,25.2,22.9,30.19,WNW,290,3.0,3.0,91,0.00,,,0.00,232,Wunderground v.1.15,2013-03-12 08:31:00,
2013-03-12 03:37:00,25.4,22.3,30.18,WNW,290,3.0,3.0,88,0.00,,,0.00,232,Wunderground v.1.15,2013-03-12 08:37:00,
2013-03-12 03:43:00,25.1,21.8,30.18,WNW,290,3.0,4.0,87,0.00,,,0.00,232,Wunderground v.1.15,2013-03-12 08:43:00,
2013-03-12 03:49:00,25.2,21.9,30.18,WNW,288,4.0,4.0,87,0.00,,,0.00,234,Wunderground v.1.15,2013-03-12 08:49:00,
2013-03-12 03:56:00,25.6,22.0,30.18,WNW,288,4.0,5.0,86,0.00,,,0.00,236,Wunderground v.1.15,2013-03-12 08:56:00,
2013-03-12 04:01:00,25.9,22.3,30.18,WNW,284,5.0,6.0,86,0.00,,,0.00,239,Wunderground v.1.15,2013-03-12 09:01:00,
2013-03-12 04:08:00,26.4,22.5,30.18,WNW,286,5.0,6.0,85,0.00,,,0.00,241,Wunderground v.1.15,2013-03-12 09:08:00,
2013-03-12 04:13:00,26.3,22.1,30.18,WNW,290,5.0,5.0,84,0.00,,,0.00,243,Wunderground v.1.15,2013-03-12 09:13:00,
2013-03-12 04:19:00,26.2,22.0,30.18,WNW,296,4.0,4.0,84,0.00,,,0.00,244,Wunderground v.1.15,2013-03-12 09:19:00,
2013-03-12 04:26:00,26.0,21.8,30.18,WNW,288,4.0,4.0,84,0.00,,,0.00,243,Wunderground v.1.15,2013-03-12 09:26:00,
2013-03-12 04:31:00,26.2,22.0,30.18,WNW,286,4.0,5.0,84,0.00,,,0.00,243,Wunderground v.1.15,2013-03-12 09:31:00,
2013-03-12 04:37:00,26.6,22.7,30.17,West,277,5.0,7.0,85,0.00,,,0.00,246,Wunderground v.1.15,2013-03-12 09:37:00,
2013-03-12 04:43:00,26.9,22.7,30.17,West,275,6.0,6.0,84,0.00,,,0.00,244,Wunderground v.1.15,2013-03-12 09:43:00,
2013-03-12 04:49:00,26.8,22.6,30.17,West,275,6.0,6.0,84,0.00,,,0.00,246,Wunderground v.1.15,2013-03-12 09:49:00,
2013-03-12 04:55:00,26.5,22.3,30.17,West,272,5.0,6.0,84,0.00,,,0.00,244,Wunderground v.1.15,2013-03-12 09:55:00,
2013-03-12 05:01:00,26.3,22.4,30.18,West,271,5.0,6.0,85,0.00,,,0.00,241,Wunderground v.1.15,2013-03-12 10:01:00,
2013-03-12 05:07:00,26.0,22.1,30.18,West,265,5.0,9.0,85,0.00,,,0.00,239,Wunderground v.1.15,2013-03-12 10:07:00,
2013-03-12 05:13:00,25.4,21.0,30.18,West,265,4.0,5.0,83,0.00,,,0.00,239,Wunderground v.1.15,2013-03-12 10:13:00,
2013-03-12 05:19:00,24.9,21.0,30.18,West,267,3.0,3.0,85,0.00,,,0.00,230,Wunderground v.1.15,2013-03-12 10:19:00,
2013-03-12 05:25:00,25.9,22.8,30.18,West,269,4.0,5.0,88,0.00,,,0.00,239,Wunderground v.1.15,2013-03-12 10:25:00,
2013-03-12 05:31:00,26.7,23.4,30.18,West,268,5.0,7.0,87,0.00,,,0.00,244,Wunderground v.1.15,2013-03-12 10:31:00,
2013-03-12 05:38:00,27.6,23.7,30.19,West,275,7.0,7.0,85,0.00,,,0.00,251,Wunderground v.1.15,2013-03-12 10:38:00,
2013-03-12 05:43:00,28.0,23.8,30.19,West,272,7.0,8.0,84,0.00,,,0.00,258,Wunderground v.1.15,2013-03-12 10:43:00,
2013-03-12 05:49:00,28.4,24.2,30.20,West,267,8.0,9.0,84,0.00,,,0.00,260,Wunderground v.1.15,2013-03-12 10:49:00,
2013-03-12 05:55:00,29.0,24.8,30.20,West,272,9.0,10.0,84,0.00,,,0.00,264,Wunderground v.1.15,2013-03-12 10:55:00,
2013-03-12 06:03:00,29.3,24.8,30.21,West,272,10.0,13.0,83,0.00,,,0.00,267,Wunderground v.1.15,2013-03-12 11:03:00,
2013-03-12 06:09:00,29.3,24.5,30.20,West,273,11.0,12.0,82,0.00,,,0.00,269,Wunderground v.1.15,2013-03-12 11:09:00,
2013-03-12 06:15:00,29.4,24.3,30.21,West,272,11.0,12.0,81,0.00,,,0.00,271,Wunderground v.1.15,2013-03-12 11:15:00,
2013-03-12 06:21:00,29.4,24.0,30.21,WNW,283,10.0,11.0,80,0.00,,,0.00,271,Wunderground v.1.15,2013-03-12 11:21:00,
2013-03-12 06:28:00,29.4,23.7,30.21,WNW,283,9.0,11.0,79,0.00,,,0.00,271,Wunderground v.1.15,2013-03-12 11:28:00,
2013-03-12 06:33:00,29.3,23.6,30.21,WNW,290,9.0,9.0,79,0.00,,,0.00,269,Wunderground v.1.15,2013-03-12 11:33:00,
2013-03-12 06:39:00,29.2,23.5,30.22,WNW,287,9.0,9.0,79,0.00,,,0.00,271,Wunderground v.1.15,2013-03-12 11:39:00,
2013-03-12 06:45:00,28.9,23.2,30.22,West,279,8.0,10.0,79,0.00,,,0.00,265,Wunderground v.1.15,2013-03-12 11:45:00,
2013-03-12 06:51:00,28.8,23.1,30.22,WNW,282,8.0,11.0,79,0.00,,,0.00,260,Wunderground v.1.15,2013-03-12 11:51:00,
2013-03-12 06:57:00,28.8,23.1,30.22,WNW,283,8.0,11.0,79,0.00,,,0.00,251,Wunderground v.1.15,2013-03-12 11:57:00,
2013-03-12 07:03:00,28.6,22.9,30.22,West,271,8.0,13.0,79,0.00,,,0.00,239,Wunderground v.1.15,2013-03-12 12:03:00,
2013-03-12 07:09:00,28.9,22.9,30.22,WNW,283,10.0,13.0,78,0.00,,,0.00,229,Wunderground v.1.15,2013-03-12 12:09:00,
2013-03-12 07:15:00,29.6,23.0,30.22,WNW,288,12.0,13.0,76,0.00,,,0.00,214,Wunderground v.1.15,2013-03-12 12:15:00,
2013-03-12 07:21:00,29.4,22.8,30.22,West,274,11.0,12.0,76,0.00,,,0.00,204,Wunderground v.1.15,2013-03-12 12:21:00,
2013-03-12 07:27:00,28.4,22.4,19.03,West,273,9.0,12.0,78,0.00,,,0.00,183,Wunderground v.1.15,2013-03-12 12:27:00,
2013-03-12 07:33:00,27.5,22.1,19.03,West,267,8.0,10.0,80,0.00,,,0.00,169,Wunderground v.1.15,2013-03-12 12:33:00,
2013-03-12 07:39:00,27.5,22.7,19.03,West,275,9.0,12.0,82,0.00,,,0.00,158,Wunderground v.1.15,2013-03-12 12:39:00,
2013-03-12 07:45:00,27.9,22.5,19.03,West,281,10.0,12.0,80,0.00,,,0.00,153,Wunderground v.1.15,2013-03-12 12:45:00,
2013-03-12 07:51:00,28.0,22.3,20.13,West,274,9.0,11.0,79,0.00,,,0.00,149,Wunderground v.1.15,2013-03-12 12:51:00,
2013-03-12 07:57:00,27.8,22.1,20.13,West,280,9.0,11.0,79,0.00,,,0.00,146,Wunderground v.1.15,2013-03-12 12:57:00,
2013-03-12 08:03:00,27.8,22.1,20.13,West,277,8.0,16.0,79,0.00,,,0.00,139,Wunderground v.1.15,2013-03-12 13:03:00,
2013-03-12 08:09:00,27.7,22.0,20.13,West,277,8.0,10.0,79,0.00,,,0.00,130,Wunderground v.1.15,2013-03-12 13:09:00,
2013-03-12 08:16:00,27.5,21.5,20.13,West,275,8.0,10.0,78,0.00,,,0.00,125,Wunderground v.1.15,2013-03-12 13:16:00,
2013-03-12 08:21:00,27.4,21.4,20.13,WNW,286,9.0,9.0,78,0.00,,,0.00,120,Wunderground v.1.15,2013-03-12 13:21:00,
2013-03-12 08:28:00,27.4,21.4,20.13,WNW,285,8.0,9.0,78,0.00,,,0.00,118,Wunderground v.1.15,2013-03-12 13:28:00,
2013-03-12 08:33:00,27.2,21.2,20.13,WNW,292,7.0,8.0,78,0.00,,,0.00,116,Wunderground v.1.15,2013-03-12 13:33:00,
2013-03-12 08:39:00,27.1,21.5,20.13,West,281,7.0,7.0,79,0.00,,,0.00,116,Wunderground v.1.15,2013-03-12 13:39:00,
2013-03-12 08:46:00,27.1,21.5,20.13,WNW,282,7.0,7.0,79,0.00,,,0.00,118,Wunderground v.1.15,2013-03-12 13:46:00,
2013-03-12 08:51:00,27.1,21.5,20.13,WNW,292,6.0,7.0,79,0.00,,,0.00,118,Wunderground v.1.15,2013-03-12 13:51:00,
2013-03-12 08:58:00,27.5,21.8,20.13,WNW,300,6.0,7.0,79,0.00,,,0.00,120,Wunderground v.1.15,2013-03-12 13:58:00,
2013-03-12 09:03:00,27.7,22.0,20.13,WNW,302,7.0,18.0,79,0.00,,,0.00,120,Wunderground v.1.15,2013-03-12 14:03:00,
2013-03-12 09:09:00,27.9,22.2,16.31,WNW,286,7.0,7.0,79,0.00,,,0.00,120,Wunderground v.1.15,2013-03-12 14:09:00,
2013-03-12 09:15:00,28.5,22.5,20.11,WNW,297,9.0,11.0,78,0.00,,,0.00,123,Wunderground v.1.15,2013-03-12 14:15:00,
2013-03-12 09:23:00,29.5,22.6,20.11,WNW,301,13.0,15.0,75,0.00,,,0.00,127,Wunderground v.1.15,2013-03-12 14:23:00,
2013-03-12 09:29:00,29.7,22.7,22.84,WNW,294,15.0,15.0,75,0.00,,,0.00,130,Wunderground v.1.15,2013-03-12 14:29:00,
2013-03-12 09:35:00,29.8,22.8,16.28,WNW,296,14.0,15.0,75,0.00,,,0.00,130,Wunderground v.1.15,2013-03-12 14:35:00,
2013-03-12 09:41:00,29.9,22.6,16.28,WNW,298,14.0,18.0,74,0.00,,,0.00,128,Wunderground v.1.15,2013-03-12 14:41:00,
2013-03-12 09:47:00,30.1,23.1,16.29,NW,304,14.0,18.0,75,0.00,,,0.00,132,Wunderground v.1.15,2013-03-12 14:47:00,
2013-03-12 09:53:00,30.2,23.2,20.09,NW,310,13.0,18.0,75,0.00,,,0.00,130,Wunderground v.1.15,2013-03-12 14:53:00,
2013-03-12 09:59:00,30.4,23.1,20.09,WNW,303,14.0,15.0,74,0.00,,,0.00,132,Wunderground v.1.15,2013-03-12 14:59:00,
2013-03-12 10:06:00,30.5,23.2,20.08,WNW,295,15.0,18.0,74,0.00,,,0.00,132,Wunderground v.1.15,2013-03-12 15:06:00,
2013-03-12 10:11:00,30.6,23.3,20.08,WNW,299,16.0,18.0,74,0.00,,,0.00,134,Wunderground v.1.15,2013-03-12 15:11:00,
2013-03-12 10:18:00,30.5,23.2,20.07,NW,304,17.0,23.0,74,0.00,,,0.00,130,Wunderground v.1.15,2013-03-12 15:18:00,
2013-03-12 10:23:00,30.5,23.5,20.07,WNW,303,16.0,19.0,75,0.00,,,0.00,130,Wunderground v.1.15,2013-03-12 15:23:00,
2013-03-12 10:29:00,30.7,23.4,20.07,WNW,302,16.0,19.0,74,0.00,,,0.00,132,Wunderground v.1.15,2013-03-12 15:29:00,
2013-03-12 10:36:00,30.7,23.4,20.06,WNW,296,16.0,19.0,74,0.00,,,0.00,135,Wunderground v.1.15,2013-03-12 15:36:00,
2013-03-12 10:41:00,30.7,23.4,20.06,NW,304,16.0,16.0,74,0.00,,,0.00,132,Wunderground v.1.15,2013-03-12 15:41:00,
2013-03-12 10:47:00,30.7,23.1,20.06,NW,309,17.0,23.0,73,0.00,,,0.00,134,Wunderground v.1.15,2013-03-12 15:47:00,
2013-03-12 10:53:00,30.7,23.4,20.05,WNW,303,18.0,24.0,74,0.00,,,0.00,134,Wunderground v.1.15,2013-03-12 15:53:00,
2013-03-12 10:59:00,30.8,23.5,20.05,WNW,303,17.0,17.0,74,0.00,,,0.00,134,Wunderground v.1.15,2013-03-12 15:59:00,
2013-03-12 11:06:00,30.8,23.5,20.05,WNW,290,17.0,23.0,74,0.00,,,0.00,132,Wunderground v.1.15,2013-03-12 16:06:00,
2013-03-12 11:11:00,30.9,23.6,20.05,WNW,303,17.0,18.0,74,0.00,,,0.00,134,Wunderground v.1.15,2013-03-12 16:11:00,
2013-03-12 11:18:00,31.0,23.4,20.05,WNW,299,17.0,22.0,73,0.00,,,0.00,135,Wunderground v.1.15,2013-03-12 16:18:00,
2013-03-12 11:23:00,31.1,23.8,20.05,NW,309,17.0,18.0,74,0.00,,,0.00,134,Wunderground v.1.15,2013-03-12 16:23:00,
2013-03-12 11:29:00,31.2,24.2,20.05,WNW,296,15.0,15.0,75,0.00,,,0.00,137,Wunderground v.1.15,2013-03-12 16:29:00,
2013-03-12 11:36:00,31.3,24.0,21.89,WNW,300,16.0,18.0,74,0.00,,,0.00,135,Wunderground v.1.15,2013-03-12 16:36:00,
2013-03-12 11:43:00,31.4,23.4,21.83,NW,307,16.0,23.0,72,0.00,,,0.01,139,Wunderground v.1.15,2013-03-12 16:43:00,
2013-03-12 11:49:00,31.6,23.6,31.08,WNW,294,17.0,17.0,72,0.00,,,0.01,139,Wunderground v.1.15,2013-03-12 16:49:00,
2013-03-12 11:55:00,31.6,23.6,31.07,WNW,286,16.0,17.0,72,0.00,,,0.01,137,Wunderground v.1.15,2013-03-12 16:55:00,
2013-03-12 12:01:00,31.8,24.1,31.07,WNW,295,16.0,26.0,73,0.00,,,0.01,139,Wunderground v.1.15,2013-03-12 17:01:00,
2013-03-12 12:07:00,32.0,24.3,31.08,NW,310,15.0,26.0,73,0.00,,,0.01,139,Wunderground v.1.15,2013-03-12 17:07:00,
2013-03-12 12:13:00,32.0,24.6,32.40,West,281,15.0,17.0,74,0.00,,,0.01,142,Wunderground v.1.15,2013-03-12 17:13:00,
2013-03-12 12:19:00,31.9,24.2,31.08,WNW,294,16.0,16.0,73,0.00,,,0.01,142,Wunderground v.1.15,2013-03-12 17:19:00,
2013-03-12 12:25:00,31.9,23.9,31.06,WNW,299,16.0,19.0,72,0.00,,,0.01,142,Wunderground v.1.15,2013-03-12 17:25:00,
2013-03-12 12:33:00,32.1,24.7,31.03,NW,309,16.0,20.0,74,0.00,,,0.02,142,Wunderground v.1.15,2013-03-12 17:33:00,
2013-03-12 12:39:00,31.9,23.9,31.03,WNW,302,17.0,20.0,72,0.00,,,0.02,144,Wunderground v.1.15,2013-03-12 17:39:00,
2013-03-12 12:45:00,31.7,23.4,31.03,WNW,294,17.0,24.0,71,0.04,,,0.03,142,Wunderground v.1.15,2013-03-12 17:45:00,
2013-03-12 12:51:00,31.7,24.4,31.03,WNW,302,18.0,18.0,74,0.04,,,0.03,141,Wunderground v.1.15,2013-03-12 17:51:00,
2013-03-12 12:57:00,31.7,24.0,31.03,NW,306,16.0,18.0,73,0.05,,,0.04,141,Wunderground v.1.15,2013-03-12 17:57:00,
2013-03-12 13:03:00,31.6,23.6,31.04,WNW,298,16.0,26.0,72,0.05,,,0.04,142,Wunderground v.1.15,2013-03-12 18:03:00,
2013-03-12 13:09:00,31.4,23.7,31.04,NW,322,16.0,17.0,73,0.04,,,0.04,139,Wunderground v.1.15,2013-03-12 18:09:00,
2013-03-12 13:15:00,31.7,23.7,31.04,WNW,290,16.0,17.0,72,0.04,,,0.05,142,Wunderground v.1.15,2013-03-12 18:15:00,
2013-03-12 13:21:00,31.9,23.6,31.04,WNW,298,16.0,16.0,71,0.04,,,0.05,142,Wunderground v.1.15,2013-03-12 18:21:00,
2013-03-12 13:27:00,31.9,23.6,31.04,WNW,302,16.0,21.0,71,0.04,,,0.06,141,Wunderground v.1.15,2013-03-12 18:27:00,
2013-03-12 13:33:00,31.9,23.2,30.98,NW,318,17.0,18.0,70,0.04,,,0.06,141,Wunderground v.1.15,2013-03-12 18:33:00,
2013-03-12 13:39:00,32.0,23.7,30.98,WNW,300,17.0,17.0,71,0.04,,,0.06,142,Wunderground v.1.15,2013-03-12 18:39:00,
2013-03-12 13:46:00,32.4,24.0,28.17,WNW,298,15.0,17.0,71,0.00,,,0.06,144,Wunderground v.1.15,2013-03-12 18:46:00,
2013-03-12 13:51:00,32.6,24.9,24.07,WNW,295,14.0,14.0,73,0.00,,,0.07,146,Wunderground v.1.15,2013-03-12 18:51:00,
2013-03-12 13:58:00,32.7,24.0,26.81,WNW,290,15.0,19.0,70,0.07,,,0.08,148,Wunderground v.1.15,2013-03-12 18:58:00,
2013-03-12 14:03:00,32.7,24.3,25.45,NW,308,15.0,26.0,71,0.07,,,0.08,148,Wunderground v.1.15,2013-03-12 19:03:00,
2013-03-12 14:09:00,32.8,24.4,25.45,NW,310,14.0,15.0,71,0.06,,,0.09,148,Wunderground v.1.15,2013-03-12 19:09:00,
2013-03-12 14:15:00,33.1,24.4,26.82,NW,307,14.0,18.0,70,0.08,,,0.10,151,Wunderground v.1.15,2013-03-12 19:15:00,
2013-03-12 14:21:00,33.3,24.2,26.82,NW,304,14.0,15.0,69,0.06,,,0.10,153,Wunderground v.1.15,2013-03-12 19:21:00,
2013-03-12 14:28:00,33.4,24.7,26.82,West,279,13.0,15.0,70,0.05,,,0.11,151,Wunderground v.1.15,2013-03-12 19:28:00,
2013-03-12 14:33:00,33.6,24.5,26.82,NW,307,13.0,15.0,69,0.05,,,0.11,153,Wunderground v.1.15,2013-03-12 19:33:00,
2013-03-12 14:39:00,34.0,24.5,25.46,WNW,303,13.0,14.0,68,0.05,,,0.12,156,Wunderground v.1.15,2013-03-12 19:39:00,
2013-03-12 14:46:00,34.2,25.4,25.46,NW,317,12.0,18.0,70,0.05,,,0.12,156,Wunderground v.1.15,2013-03-12 19:46:00,
2013-03-12 14:51:00,34.3,25.5,25.46,NW,304,10.0,11.0,70,0.05,,,0.13,158,Wunderground v.1.15,2013-03-12 19:51:00,
2013-03-12 14:57:00,34.6,25.5,26.83,NW,307,9.0,14.0,69,0.07,,,0.14,163,Wunderground v.1.15,2013-03-12 19:57:00,
2013-03-12 15:03:00,34.6,25.5,25.45,WNW,296,11.0,25.0,69,0.07,,,0.14,163,Wunderground v.1.15,2013-03-12 20:03:00,
2013-03-12 15:09:00,34.7,25.2,29.55,WNW,303,12.0,17.0,68,0.07,,,0.15,162,Wunderground v.1.15,2013-03-12 20:09:00,
2013-03-12 15:15:00,34.6,24.8,25.45,WNW,295,13.0,17.0,67,0.07,,,0.16,162,Wunderground v.1.15,2013-03-12 20:15:00,
2013-03-12 15:21:00,34.4,24.2,24.08,WNW,296,14.0,14.0,66,0.07,,,0.16,156,Wunderground v.1.15,2013-03-12 20:21:00,
2013-03-12 15:28:00,34.7,24.9,24.08,NW,308,11.0,14.0,67,0.05,,,0.17,160,Wunderground v.1.15,2013-03-12 20:28:00,
2013-03-12 15:33:00,34.8,25.3,24.09,NW,307,10.0,11.0,68,0.05,,,0.17,160,Wunderground v.1.15,2013-03-12 20:33:00,
2013-03-12 15:39:00,34.9,25.4,24.09,WNW,288,9.0,9.0,68,0.06,,,0.18,162,Wunderground v.1.15,2013-03-12 20:39:00,
2013-03-12 15:45:00,35.1,25.9,25.46,NW,325,8.0,9.0,69,0.05,,,0.18,167,Wunderground v.1.15,2013-03-12 20:45:00,
2013-03-12 15:51:00,35.1,25.2,24.09,NW,310,8.0,14.0,67,0.04,,,0.19,165,Wunderground v.1.15,2013-03-12 20:51:00,
2013-03-12 15:57:00,35.1,25.2,25.45,NW,322,9.0,14.0,67,0.04,,,0.19,163,Wunderground v.1.15,2013-03-12 20:57:00,
2013-03-12 16:03:00,35.1,24.9,24.08,NW,321,9.0,20.0,66,0.05,,,0.20,163,Wunderground v.1.15,2013-03-12 21:03:00,
2013-03-12 16:09:00,35.2,25.0,26.82,NNW,329,10.0,13.0,66,0.05,,,0.20,162,Wunderground v.1.15,2013-03-12 21:09:00,
2013-03-12 16:15:00,35.3,25.4,26.82,WNW,299,9.0,15.0,67,0.04,,,0.20,165,Wunderground v.1.15,2013-03-12 21:15:00,
2013-03-12 16:21:00,35.3,25.1,31.00,NW,313,11.0,16.0,66,0.04,,,0.21,162,Wunderground v.1.15,2013-03-12 21:21:00,
2013-03-12 16:27:00,35.7,25.4,31.01,WNW,300,12.0,16.0,66,0.04,,,0.21,169,Wunderground v.1.15,2013-03-12 21:27:00,
2013-03-12 16:33:00,35.7,25.1,31.00,NNW,330,11.0,13.0,65,0.04,,,0.22,169,Wunderground v.1.15,2013-03-12 21:33:00,
2013-03-12 16:39:00,35.5,23.8,31.00,NW,313,11.0,11.0,62,0.04,,,0.22,165,Wunderground v.1.15,2013-03-12 21:39:00,
2013-03-12 16:45:00,35.4,24.8,31.00,NW,317,11.0,12.0,65,0.04,,,0.22,167,Wunderground v.1.15,2013-03-12 21:45:00,
2013-03-12 16:53:00,35.1,24.1,31.00,NW,313,10.0,11.0,64,0.00,,,0.22,163,Wunderground v.1.15,2013-03-12 21:53:00,
2013-03-12 16:59:00,35.2,24.2,31.00,NNW,336,10.0,11.0,64,0.00,,,0.23,163,Wunderground v.1.15,2013-03-12 21:59:00,
2013-03-12 17:05:00,35.5,24.9,31.00,NW,320,8.0,20.0,65,0.00,,,0.23,172,Wunderground v.1.15,2013-03-12 22:05:00,
2013-03-12 17:11:00,35.4,24.8,32.29,NW,325,7.0,7.0,65,0.00,,,0.23,169,Wunderground v.1.15,2013-03-12 22:11:00,
2013-03-12 17:17:00,35.4,24.8,32.29,NNW,329,8.0,9.0,65,0.00,,,0.23,169,Wunderground v.1.15,2013-03-12 22:17:00,
2013-03-12 17:23:00,35.3,24.3,32.29,NNW,333,9.0,12.0,64,0.00,,,0.24,167,Wunderground v.1.15,2013-03-12 22:23:00,
2013-03-12 17:29:00,35.2,24.2,31.01,North,360,8.0,8.0,64,0.00,,,0.24,167,Wunderground v.1.15,2013-03-12 22:29:00,
2013-03-12 17:35:00,35.1,24.5,31.01,NNW,333,7.0,9.0,65,0.00,,,0.24,167,Wunderground v.1.15,2013-03-12 22:35:00,
2013-03-12 17:43:00,34.9,24.3,32.31,NNW,328,8.0,11.0,65,0.00,,,0.24,163,Wunderground v.1.15,2013-03-12 22:43:00,
2013-03-12 17:49:00,34.7,24.1,32.31,NW,313,8.0,11.0,65,0.00,,,0.24,162,Wunderground v.1.15,2013-03-12 22:49:00,
2013-03-12 17:55:00,34.7,24.5,31.03,North,349,8.0,11.0,66,0.00,,,0.25,162,Wunderground v.1.15,2013-03-12 22:55:00,
2013-03-12 18:01:00,34.6,24.0,31.04,NW,320,6.0,18.0,65,0.00,,,0.25,165,Wunderground v.1.15,2013-03-12 23:01:00,
2013-03-12 18:07:00,34.5,24.7,32.34,North,355,6.0,18.0,67,0.00,,,0.25,165,Wunderground v.1.15,2013-03-12 23:07:00,
2013-03-12 18:13:00,34.4,24.6,31.05,NW,311,6.0,9.0,67,0.00,,,0.25,165,Wunderground v.1.15,2013-03-12 23:13:00,
2013-03-12 18:19:00,34.3,24.5,31.06,NNW,329,6.0,6.0,67,0.00,,,0.25,162,Wunderground v.1.15,2013-03-12 23:19:00,
2013-03-12 18:25:00,33.9,24.4,32.36,NNW,347,7.0,7.0,68,0.00,,,0.25,156,Wunderground v.1.15,2013-03-12 23:25:00,
2013-03-12 18:31:00,33.8,24.4,32.36,NW,315,6.0,7.0,68,0.00,,,0.26,155,Wunderground v.1.15,2013-03-12 23:31:00,
2013-03-12 18:37:00,33.2,23.8,31.08,NNW,333,6.0,10.0,68,0.00,,,0.26,151,Wunderground v.1.15,2013-03-12 23:37:00,
2013-03-12 18:43:00,32.8,23.4,31.09,NW,323,6.0,10.0,68,0.00,,,0.26,148,Wunderground v.1.15,2013-03-12 23:43:00,
2013-03-12 18:49:00,32.4,23.0,31.10,NW,313,6.0,12.0,68,0.00,,,0.26,149,Wunderground v.1.15,2013-03-12 23:49:00,
2013-03-12 18:55:00,32.1,23.4,31.10,NW,313,5.0,12.0,70,0.00,,,0.26,153,Wunderground v.1.15,2013-03-12 23:55:00,
2013-03-12 19:03:00,31.8,23.1,31.10,NNW,327,5.0,16.0,70,0.00,,,0.26,158,Wunderground v.1.15,2013-03-13 00:03:00,
2013-03-12 19:09:00,31.5,22.8,31.12,NNW,333,6.0,7.0,70,0.00,,,0.26,158,Wunderground v.1.15,2013-03-13 00:09:00,
2013-03-12 19:15:00,31.2,22.5,31.13,NNW,336,5.0,11.0,70,0.00,,,0.26,160,Wunderground v.1.15,2013-03-13 00:15:00,
2013-03-12 19:23:00,30.9,22.3,31.14,NNW,329,5.0,6.0,70,0.00,,,0.26,160,Wunderground v.1.15,2013-03-13 00:23:00,
2013-03-12 19:29:00,30.6,22.3,31.15,NW,323,4.0,4.0,71,0.00,,,0.26,160,Wunderground v.1.15,2013-03-13 00:29:00,
2013-03-12 19:37:00,30.2,22.3,31.15,NW,319,4.0,8.0,72,0.00,,,0.26,165,Wunderground v.1.15,2013-03-13 00:37:00,
2013-03-12 19:43:00,30.1,22.2,31.15,NNW,333,4.0,4.0,72,0.00,,,0.26,171,Wunderground v.1.15,2013-03-13 00:43:00,
2013-03-12 19:49:00,29.8,21.9,27.57,NW,326,5.0,5.0,72,0.00,,,0.26,179,Wunderground v.1.15,2013-03-13 00:49:00,
2013-03-12 19:55:00,29.7,22.1,27.57,NNW,336,4.0,5.0,73,0.00,,,0.26,193,Wunderground v.1.15,2013-03-13 00:55:00,
2013-03-12 20:01:00,29.5,21.9,31.18,NW,310,3.0,5.0,73,0.00,,,0.26,202,Wunderground v.1.15,2013-03-13 01:01:00,
2013-03-12 20:07:00,29.4,21.8,23.80,NNW,327,3.0,19.0,73,0.00,,,0.26,220,Wunderground v.1.15,2013-03-13 01:07:00,
2013-03-12 20:13:00,29.2,21.6,23.80,NNW,335,3.0,3.0,73,0.00,,,0.26,230,Wunderground v.1.15,2013-03-13 01:13:00,
2013-03-12 20:19:00,29.0,21.7,23.80,NW,307,3.0,3.0,74,0.00,,,0.26,241,Wunderground v.1.15,2013-03-13 01:19:00,
2013-03-12 20:26:00,28.9,21.7,21.92,NNW,347,2.0,3.0,74,0.00,,,0.26,248,Wunderground v.1.15,2013-03-13 01:26:00,
2013-03-12 20:31:00,28.8,21.6,21.92,NNW,327,3.0,4.0,74,0.00,,,0.26,251,Wunderground v.1.15,2013-03-13 01:31:00,
2013-03-12 20:37:00,28.7,21.5,21.92,NNW,331,3.0,4.0,74,0.00,,,0.26,251,Wunderground v.1.15,2013-03-13 01:37:00,
2013-03-12 20:43:00,28.5,21.3,21.92,NW,319,3.0,4.0,74,0.00,,,0.26,251,Wunderground v.1.15,2013-03-13 01:43:00,
2013-03-12 20:49:00,28.4,21.5,29.56,NW,318,3.0,3.0,75,0.00,,,0.26,250,Wunderground v.1.15,2013-03-13 01:49:00,
2013-03-12 20:55:00,28.4,21.2,29.56,NW,319,4.0,5.0,74,0.00,,,0.26,251,Wunderground v.1.15,2013-03-13 01:55:00,
2013-03-12 21:01:00,28.3,21.1,23.88,NW,321,4.0,12.0,74,0.00,,,0.26,251,Wunderground v.1.15,2013-03-13 02:01:00,
2013-03-12 21:07:00,28.1,21.2,23.88,NW,309,3.0,12.0,75,0.00,,,0.26,250,Wunderground v.1.15,2013-03-13 02:07:00,
2013-03-12 21:13:00,27.9,21.0,23.88,NW,322,3.0,4.0,75,0.00,,,0.26,248,Wunderground v.1.15,2013-03-13 02:13:00,
2013-03-12 21:19:00,27.7,20.8,22.85,NW,315,3.0,4.0,75,0.00,,,0.26,246,Wunderground v.1.15,2013-03-13 02:19:00,
2013-03-12 21:25:00,27.5,20.6,20.11,NW,316,3.0,4.0,75,0.00,,,0.26,243,Wunderground v.1.15,2013-03-13 02:25:00,
2013-03-12 21:31:00,27.4,20.5,20.12,NW,317,2.0,3.0,75,0.00,,,0.26,243,Wunderground v.1.15,2013-03-13 02:31:00,
2013-03-12 21:37:00,27.2,20.6,20.13,NW,317,2.0,3.0,76,0.00,,,0.26,241,Wunderground v.1.15,2013-03-13 02:37:00,
2013-03-12 21:43:00,27.2,20.6,20.13,NW,319,2.0,3.0,76,0.00,,,0.26,241,Wunderground v.1.15,2013-03-13 02:43:00,
2013-03-12 21:49:00,27.2,20.3,20.14,NNW,333,2.0,3.0,75,0.00,,,0.26,243,Wunderground v.1.15,2013-03-13 02:49:00,
2013-03-12 21:55:00,27.1,20.2,22.89,NW,317,2.0,3.0,75,0.00,,,0.26,244,Wunderground v.1.15,2013-03-13 02:55:00,
2013-03-12 22:01:00,27.0,20.1,22.89,NW,314,2.0,9.0,75,0.00,,,0.26,243,Wunderground v.1.15,2013-03-13 03:01:00,
2013-03-12 22:07:00,26.6,19.7,22.89,NW,314,2.0,9.0,75,0.00,,,0.26,237,Wunderground v.1.15,2013-03-13 03:07:00,
2013-03-12 22:13:00,26.1,19.6,22.89,NW,314,1.0,2.0,76,0.00,,,0.26,232,Wunderground v.1.15,2013-03-13 03:13:00,
2013-03-12 22:19:00,25.6,19.7,22.89,NW,314,1.0,2.0,78,0.00,,,0.26,229,Wunderground v.1.15,2013-03-13 03:19:00,
2013-03-12 22:25:00,25.1,19.5,22.89,NW,314,1.0,2.0,79,0.00,,,0.26,225,Wunderground v.1.15,2013-03-13 03:25:00,
2013-03-12 22:33:00,24.7,19.4,22.89,NW,314,0.0,1.0,80,0.00,,,0.26,221,Wunderground v.1.15,2013-03-13 03:33:00,
2013-03-12 22:39:00,24.4,19.4,22.89,NW,314,0.0,1.0,81,0.00,,,0.26,218,Wunderground v.1.15,2013-03-13 03:39:00,
2013-03-12 22:45:00,24.3,19.6,22.89,NW,314,1.0,2.0,82,0.00,,,0.26,218,Wunderground v.1.15,2013-03-13 03:45:00,
2013-03-12 22:51:00,24.5,19.8,22.89,NW,314,1.0,1.0,82,0.00,,,0.26,220,Wunderground v.1.15,2013-03-13 03:51:00,
2013-03-12 22:57:00,24.7,19.7,19.51,NW,314,1.0,1.0,81,0.00,,,0.26,221,Wunderground v.1.15,2013-03-13 03:57:00,
2013-03-12 23:03:00,24.8,19.8,19.51,NW,314,1.0,6.0,81,0.00,,,0.26,223,Wunderground v.1.15,2013-03-13 04:03:00,
2013-03-12 23:05:00,24.8,19.8,19.51,NW,314,1.0,6.0,81,0.00,,,0.26,223,Wunderground v.1.15,2013-03-13 04:05:00,
2013-03-12 23:09:00,24.9,19.9,19.51,NW,314,1.0,1.0,81,0.00,,,0.26,223,Wunderground v.1.15,2013-03-13 04:09:00,
2013-03-12 23:13:00,24.8,19.5,19.51,NW,314,1.0,1.0,80,0.00,,,0.26,221,Wunderground v.1.15,2013-03-13 04:13:00,
2013-03-12 23:19:00,24.7,19.4,19.51,NW,314,0.0,1.0,80,0.00,,,0.26,221,Wunderground v.1.15,2013-03-13 04:19:00,
2013-03-12 23:25:00,24.5,19.2,19.51,NW,314,1.0,1.0,80,0.00,,,0.26,218,Wunderground v.1.15,2013-03-13 04:25:00,
2013-03-12 23:31:00,24.3,19.3,19.51,NW,314,0.0,1.0,81,0.00,,,0.26,216,Wunderground v.1.15,2013-03-13 04:31:00,
2013-03-12 23:38:00,23.9,18.9,19.51,NW,314,0.0,1.0,81,0.00,,,0.26,213,Wunderground v.1.15,2013-03-13 04:38:00,
2013-03-12 23:43:00,23.4,18.4,19.51,NW,314,0.0,0.0,81,0.00,,,0.26,213,Wunderground v.1.15,2013-03-13 04:43:00,
2013-03-12 23:49:00,23.0,18.6,19.51,NW,314,0.0,1.0,83,0.00,,,0.26,209,Wunderground v.1.15,2013-03-13 04:49:00,
2013-03-12 23:56:00,23.2,19.1,24.10,NW,314,1.0,2.0,84,0.00,,,0.26,209,Wunderground v.1.15,2013-03-13 04:56:00,